* Astronomy

Members Login
Username 
 
Password 
    Remember Me  
Post Info TOPIC: Chang Zheng-3B rocket body re-entry


L

Posts: 131433
Date:
RE: Chang Zheng-3B rocket body re-entry
Permalink  
 


Update:
The Chang Zheng-3B rocket body re-entered the Earths atmosphere on the 30th October, 2011 @ 11:34 GMT 4 hours.

CZ-3B R/B
1 37837U 11057B   11302.90040486 +.85256804 -38817-4 +13149-2 0 00711
2 37837 025.9380 100.9321 1120283 242.6216 234.6851 13.95844592001250

Period: 97.9 minutes
Inclination: 25.95
Apogee: 1222 km
Perigee: 94 km
Revolution Number: 133
Predicted Location: 11.9S, 220.6E



__________________


L

Posts: 131433
Date:
Permalink  
 

Update:
The Chang Zheng-3B rocket body is predicted to re-enter the Earths atmosphere on the 30th October, 2011 @ 11:20 GMT 6 hours.

CZ-3B RB
1 37837U 11057B   11301.92954624 +.77892580 -32294-4 +16154-2 0 00619
2 37837 025.9203 106.0489 1787883 233.8572 307.0015 12.41665926001123

Period: 122.37 minutes
Inclination: 25.98
Apogee: 3474 km
Perigee: 99 km
Revolution Number: 133
Predicted Location: 25.4S, 173.3E



__________________


L

Posts: 131433
Date:
Permalink  
 

Update:
The Chang Zheng-3B rocket body is predicted to re-enter the Earths atmosphere on the 30th October, 2011 @ 09:49 GMT 24 hours.

CZ-3B RB
1 37837U 11057B   11300.71564218 +.58347982 -24944-4 +22777-2 0 00533
2 37837 025.9898 110.9037 2505135 225.1333 301.5043 10.80777582000980

Period: 122.37 minutes
Inclination: 25.98
Apogee: 3474 km
Perigee: 99 km
Revolution Number: 132
Predicted Location: 26S, 183.9E



__________________


L

Posts: 131433
Date:
Permalink  
 

A Chang Zheng-3B rocket body that was launched on the 7th October, 2011, from the Xichang Satellite Launch site, for the Eutelsat-W3C satellite mission is predicted to re-enter the Earths atmosphere on the 30th October, 2011 @ 09:49 GMT 24 hours.

CZ-3B RB
1 37837U 11057B   11300.66674444  .61639981  00000-0 740931+0 0   513
2 37837 026.3702 111.6101 2211166 221.0195 116.8312 10.77449677   970

Period: 163.88 minutes
Inclination: 26.11
Apogee: 6987 km
Perigee: 97 km
Revolution Number: 132
Predicted Location: 26S, 183.9E



__________________
Page 1 of 1  sorted by
 
Quick Reply

Please log in to post quick replies.



Create your own FREE Forum
Report Abuse
Powered by ActiveBoard